Гаррисберг

США     40°16′21″N   76°51′57″W
темп.,
°C
ветер,
м/с
пор.,
м/с
влажн.,
%
обл.,
%
осадки,
мм/ч
давл.,
гПа
погр.,
м
17 сентября, пт
пт1723:00+19всв2698100 0.0 1023195
02:00+18св2598100 0.0 1022159
05:00+19всв3696100 0.0 1022384
08:00+19всв2796100 0.0 1024332
11:00+21в359092 0.0 1023541
14:00+22в3484100 0.1 1022622
17:00+22всв238648 0.1 1021342
20:00+20ссв229418 0.1 102015
18 сентября, сб
сб1823:00+19с119474 0.0 102011
02:00+20ссз119298 0.0 101911
05:00+20з119170 0.0 101912
08:00+19зсз12940 0.0 102088
11:00+24зсз237829 0.0 1019553
14:00+27ссз34620 0.0 10181151
17:00+27с23660 0.0 1016925
20:00+22ююз00755 0.1 101711
19 сентября, вс
вс1923:00+22ссз257397 0.0 1019128
02:00+18ссз22902 0.0 102017
05:00+17ссз22940 0.0 102120
08:00+17с13910 0.0 1022119
11:00+22ссв24610 0.0 1023735
14:00+25ссв224912 0.0 10221134
17:00+25ссз11535 0.0 10211136
20:00+18с11695 0.0 102211
20 сентября, пн
пн2023:00+16всв11795 0.0 102311
02:00+14всв1188100 0.0 102411
05:00+13всв1182100 0.0 102512
08:00+14в2382100 0.0 102696
11:00+20юв347286 0.0 1026545
14:00+23юв456341 0.0 10251069
17:00+23юв3671100 0.0 1024663
20:00+18юв31079100 0.0 1025270
21 сентября, вт
вт2123:00+16юв31192100 0.0 1026300
02:00+15вюв2294100 0.0 102655
05:00+15вюв2397100 0.0 102593
08:00+16вюв289383 0.0 1026251
11:00+21ююв5777100 0.0 1025826
14:00+23ююв5671100 0.0 10231221
17:00+22ююв4875100 0.0 1021609
20:00+21ююв41171100 0.0 1021469